CST,Max TemperatureF,Mean TemperatureF,Min TemperatureF,Max Dew PointF,MeanDew PointF,Min DewpointF,Max Humidity, Mean Humidity, Min Humidity, Max Sea Level PressureIn, Mean Sea Level PressureIn, Min Sea Level PressureIn, Max VisibilityMiles, Mean VisibilityMiles, Min VisibilityMiles, Max Wind SpeedMPH, Mean Wind SpeedMPH, Max Gust SpeedMPH,PrecipitationIn, CloudCover, Events, WindDirDegrees
2013-1-1,15,4,-6,9,-2,-11,85,70,53,30.32,30.24,30.15,10,10,10,9,6,,0.00,3,,271
2013-1-2,23,14,6,14,9,3,92,72,54,30.15,30.08,30.02,10,10,10,8,5,,0.00,7,Snow,189
2013-1-3,23,16,6,18,13,3,93,81,73,30.25,30.16,30.07,10,8,3,13,9,,0.00,6,Snow,277
2013-1-4,30,19,7,18,11,5,89,73,59,30.20,30.13,30.07,10,10,10,15,9,21,0.00,0,,247
2013-1-5,33,18,4,27,16,0,94,80,64,30.20,30.02,29.90,10,10,10,14,6,,0.01,4,,182
2013-1-6,26,14,3,19,15,0,90,81,69,30.27,30.09,29.93,10,10,10,17,11,,0.00,4,Snow,291
2013-1-7,37,24,12,25,19,8,86,70,56,30.22,30.06,29.97,10,10,10,18,10,34,0.01,4,,210
2013-1-8,39,24,8,30,13,5,100,88,65,30.07,30.03,29.88,10,3,0,16,2,24,0.00,1,Fog,137
2013-1-9,37,27,17,29,23,14,86,73,56,30.44,30.19,29.91,10,10,10,23,15,29,0.00,1,,260
2013-1-10,37,24,12,34,26,10,100,85,56,30.47,30.18,29.83,10,8,2,15,7,,0.07,6,Rain,111
2013-1-11,44,38,33,44,36,33,100,100,93,29.82,29.67,29.52,10,3,0,12,5,,0.06,8,Fog-Rain,128
2013-1-12,47,31,15,42,20,9,91,73,63,30.04,29.85,29.51,10,10,10,30,16,41,0.00,5,Snow,255
2013-1-13,15,10,6,9,4,1,85,72,62,30.27,30.10,30.00,10,10,6,16,10,,0.00,6,Snow,289
2013-1-14,21,10,0,9,3,-4,92,77,54,30.45,30.40,30.29,10,10,10,17,5,,0.00,2,Snow,266
2013-1-15,30,16,1,14,9,-2,90,68,47,30.42,30.26,30.01,10,10,10,14,5,18,0.00,0,,186
2013-1-16,33,27,21,30,21,9,87,75,58,30.15,29.85,29.71,10,9,3,16,12,23,0.00,6,Snow,250
2013-1-17,23,14,4,9,5,0,87,64,42,30.43,30.35,30.17,10,10,10,17,8,,0.00,3,,293
2013-1-18,46,27,8,32,18,5,87,76,53,30.40,30.11,29.78,10,9,2,14,7,25,0.00,6,Snow,164
2013-1-19,48,28,7,32,21,-4,92,66,46,30.07,29.78,29.65,10,10,9,37,13,48,0.03,4,Snow,265
2013-1-20,14,8,3,3,-2,-6,79,66,41,30.37,30.26,30.09,10,9,2,20,13,31,0.00,5,Snow,291
2013-1-21,5,-1,-9,0,-8,-15,85,73,51,30.35,30.24,30.19,10,8,2,22,11,29,0.00,5,Snow,293
2013-1-22,5,-4,-13,-6,-12,-18,85,71,51,30.42,30.37,30.32,10,10,6,13,6,17,0.00,4,Snow,294
2013-1-23,17,8,-2,12,4,-11,86,74,61,30.54,30.21,30.05,10,7,1,20,6,31,0.03,7,Snow,281
2013-1-24,10,2,-7,1,-6,-13,77,67,57,30.72,30.58,30.34,10,10,10,9,6,,0.00,5,,84
2013-1-25,23,16,6,14,9,1,92,77,63,30.33,30.12,29.90,10,7,2,17,7,23,0.01,7,Snow,182
2013-1-26,23,11,-1,12,4,-5,85,67,52,30.43,30.35,30.28,10,10,10,13,6,,0.00,2,,194
2013-1-27,30,26,23,30,24,13,100,85,63,30.29,30.03,29.85,10,5,1,16,8,,0.12,7,Rain-Snow,124
2013-1-28,33,32,30,32,31,30,100,95,87,29.95,29.85,29.70,10,7,2,14,2,,0.02,8,Rain,106
2013-1-29,42,38,32,43,36,32,100,98,93,29.74,29.59,29.51,10,4,0,18,8,22,0.20,8,Fog-Rain-Snow-Thunderstorm,119
2013-1-30,32,22,12,32,25,7,100,91,73,29.67,29.51,29.42,10,4,0,20,9,28,0.01,8,Rain-Snow,325
2013-1-31,12,12,11,7,5,3,79,71,67,29.70,29.69,29.67,2,1,1,21,14,25,0.00,8,Snow,299